Stratford, CT

4:19 PM EST on March 01, 2017 (GMT -0500)
Sikorsky Memorial

Weather History for KBDR - April, 2013

Change the Weather History Date:

Saturday, April 6, 2013

  Actual Average Record
Temperature  
Mean Temperature 43 °F 46 °F  
Max Temperature 51 °F 54 °F 70 °F (1991)
Min Temperature 35 °F 38 °F 19 °F (1982)
Degree Days  
Heating Degree Days 22 19  
Month to date heating degree days 130 119  
Since 1 July heating degree days 4548 4803  
Cooling Degree Days 0 0  
Month to date cooling degree days 0 0  
Year to date cooling degree days 0 0  
Moisture  
Dew Point 15 °F    
Average Humidity 42    
Maximum Humidity 70    
Minimum Humidity 14    
Precipitation  
Precipitation 0.00 in 0.13 in 2.00 in (1958)
Month to date precipitation 0.02 0.84  
Year to date precipitation 9.58 10.78  
Snow  
Snow 0.00 in 0.00 in 6.00 in (1982)
Month to date snowfall 0.0 0.3  
Since 1 July snowfall 64.3 27.0  
Snow Depth 0.00 in    
Sea Level Pressure  
Sea Level Pressure 30.21 in    
Wind  
Wind Speed 10 mph (WNW)    
Max Wind Speed 23 mph    
Max Gust Speed 35 mph    
Visibility 10 miles    
Events      
T = Trace of Precipitation, MM = Missing Value Source: NWS Daily Summary

Daily Weather History Graph

Daily Weather History Graph

Search for Another Location

Airport or City:

Trip Planner

Search our weather history database for the weather conditions in past years. The results will help you decide how hot, cold, wet, or windy it might be!

Date:

Astronomy

Apr. 06, 2013 Rise Set
Actual Time 6:27 AM EDT 7:23 PM EDT
Civil Twilight 5:59 AM EDT 7:51 PM EDT
Nautical Twilight 5:25 AM EDT 8:24 PM EDT
Astronomical Twilight 4:51 AM EDT 8:59 PM EDT
Moon 4:11 AM EDT (4/6) 3:47 PM EDT (4/6)
Length of Visible Light 13h 52m
Length of Day
12h 55m
Waning Crescent, 15% of the Moon is Illuminated
Apr 6
Waning Crescent
Apr 10
New
Apr 18
First Quarter
Apr 25
Full
May 2
Last Quarter

Hourly Weather History & Observations

Time (EDT) Temp. Windchill Dew Point Humidity Pressure Visibility Wind Dir Wind Speed Gust Speed Precip Events Conditions
12:52 AM 41.0 °F 36.4 °F 21.0 °F 45% 29.98 in 10.0 mi NW 6.9 mph - N/A   Clear
1:52 AM 39.9 °F 35.1 °F 21.9 °F 49% 30.01 in 10.0 mi NNW 6.9 mph - N/A   Clear
2:52 AM 37.9 °F - 21.9 °F 53% 30.03 in 10.0 mi Calm Calm - N/A   Clear
3:52 AM 37.0 °F 32.4 °F 21.0 °F 52% 30.06 in 10.0 mi NW 5.8 mph - N/A   Clear
4:52 AM 36.0 °F 29.0 °F 19.9 °F 52% 30.09 in 10.0 mi NW 9.2 mph - N/A   Clear
5:52 AM 36.0 °F 27.1 °F 18.0 °F 48% 30.14 in 10.0 mi NNW 13.8 mph 23.0 mph N/A   Clear
6:52 AM 35.1 °F 26.9 °F 12.0 °F 39% 30.17 in 10.0 mi NNW 11.5 mph 25.3 mph N/A   Clear
7:52 AM 35.6 °F 26.2 °F 10.4 °F 35% 30.22 in 10.0 mi NNW 15.0 mph 34.5 mph N/A   Clear
8:52 AM 37.0 °F 28.9 °F 6.1 °F 28% 30.24 in 10.0 mi North 12.7 mph 27.6 mph N/A   Clear
9:52 AM 39.0 °F 31.4 °F 6.1 °F 26% 30.25 in 10.0 mi NNW 12.7 mph - N/A   Clear
10:52 AM 41.0 °F 35.2 °F 5.0 °F 23% 30.27 in 10.0 mi NNW 9.2 mph 21.9 mph N/A   Clear
11:52 AM 44.1 °F 36.2 °F 3.9 °F 19% 30.27 in 10.0 mi NW 18.4 mph - N/A   Clear
12:52 PM 45.0 °F 39.7 °F 3.0 °F 18% 30.27 in 10.0 mi North 10.4 mph 21.9 mph N/A   Clear
1:52 PM 48.0 °F - 3.9 °F 16% 30.26 in 10.0 mi NW 13.8 mph - N/A   Clear
2:52 PM 48.9 °F - 3.0 °F 15% 30.26 in 10.0 mi North 9.2 mph - N/A   Clear
3:52 PM 50.0 °F - 3.0 °F 15% 30.24 in 10.0 mi WNW 12.7 mph 18.4 mph N/A   Clear
4:52 PM 46.9 °F - 12.0 °F 24% 30.26 in 10.0 mi SSW 13.8 mph - N/A   Clear
5:52 PM 46.9 °F - 14.0 °F 27% 30.28 in 10.0 mi SSW 12.7 mph - N/A   Clear
6:52 PM 46.9 °F - 19.0 °F 33% 30.29 in 10.0 mi SSW 8.1 mph - N/A   Clear
7:52 PM 44.1 °F 38.1 °F 26.1 °F 49% 30.30 in 10.0 mi SSW 11.5 mph - N/A   Clear
8:52 PM 42.1 °F 37.7 °F 28.9 °F 60% 30.31 in 10.0 mi SSW 6.9 mph - N/A   Clear
9:52 PM 41.0 °F 36.4 °F 30.0 °F 65% 30.33 in 10.0 mi SSW 6.9 mph - N/A   Clear
10:52 PM 41.0 °F 36.4 °F 30.9 °F 67% 30.32 in 10.0 mi SW 6.9 mph - N/A   Clear
11:52 PM 37.0 °F 34.5 °F 28.9 °F 73% 30.32 in 10.0 mi SSW 3.5 mph - N/A   Clear